Wind_Speed
8 9 9 8 7 7 7 7 7 8 8 9 9 9 8 7 6 6 5 4 4 4 4 4 4 4 4 3 3 3 3 3 3 3 4 4 4 4 4 4 4 3 3
8 9 9 9 8 8 8 8 8 8 9 9 9 9 8 7 6 5 4 4 3 3 3 3 3 3 3 2 2 1 1 1 1 2 3 4 4 4 4 4 3 3 3
9 9 9 10 9 9 9 9 9 9 9 9 9 9 9 8 7 6 5 4 3 2 1 1 1 2 1 1 1 1 1 0 0 1 2 3 4 4 4 3 3 3 3
9 10 9 10 10 10 10 10 10 10 10 10 9 9 9 9 8 6 6 4 3 2 1 1 0 1 1 1 1 1 1 1 1 0 1 2 3 3 3 3 2 2 2
10 10 10 10 11 11 11 11 12 12 12 12 11 10 10 9 9 8 7 6 5 4 3 3 2 2 2 2 2 2 2 2 2 1 1 1 2 2 2 2 2 2 2
10 11 11 11 11 11 12 12 13 13 13 13 13 13 12 11 11 10 9 8 7 6 5 5 4 4 4 3 3 3 3 3 3 2 2 1 1 2 2 1 1 2 2
11 12 11 11 11 12 13 13 14 15 15 15 15 15 14 14 13 12 11 10 9 9 8 7 6 6 5 5 4 4 5 5 4 4 3 3 2 2 2 2 2 1 2
12 12 13 13 13 13 14 14 15 15 16 16 16 16 16 16 15 14 14 13 12 11 10 9 9 8 7 7 6 6 6 6 6 5 5 4 4 4 3 3 2 2 2
12 13 13 13 14 14 14 15 15 16 17 17 17 17 17 17 17 16 16 15 14 14 13 12 11 10 9 9 8 8 8 8 8 7 6 6 5 5 4 4 3 3 3
14 14 14 15 15 15 16 16 16 17 17 18 18 19 18 18 18 18 17 17 16 16 15 14 13 12 11 11 10 9 9 9 9 9 8 8 7 7 6 5 4 4 4
16 15 16 16 17 17 17 17 17 18 19 19 20 20 20 19 19 19 18 18 17 17 16 16 15 14 14 12 12 11 10 10 10 10 10 10 9 9 8 7 6 5 5
17 16 17 17 17 18 18 18 19 19 20 21 21 21 21 21 21 20 20 20 19 18 18 17 16 16 15 14 14 13 12 12 12 12 12 11 11 10 10 9 8 7 7
18 18 18 18 19 19 20 20 20 20 21 22 22 22 22 23 23 22 22 22 21 20 19 19 18 17 17 16 15 15 14 14 13 13 13 13 12 12 11 11 10 10 9
20 19 20 20 19 20 21 22 22 22 23 23 24 24 23 24 24 23 23 23 22 21 21 20 19 19 19 18 17 17 16 16 15 15 14 14 14 13 13 12 12 12 12
22 22 21 22 22 22 22 23 23 23 24 24 24 25 25 25 25 24 24 24 24 23 22 22 21 21 20 20 19 19 18 18 17 16 16 16 16 15 15 14 14 14 14
24 24 24 24 25 25 25 25 25 26 26 25 25 26 26 27 27 27 27 26 25 24 23 23 22 22 22 21 20 20 20 20 20 19 18 18 18 17 17 17 16 16 16
25 25 25 25 26 26 27 27 27 27 27 27 27 28 28 29 29 29 29 28 27 26 25 24 24 24 24 24 23 22 22 21 21 21 20 20 20 19 19 19 18 18 18
26 26 26 26 26 27 28 28 28 28 28 29 29 30 30 30 30 30 30 30 30 29 27 26 26 25 26 25 25 25 24 23 23 23 22 22 21 21 20 20 20 20 20
26 26 26 27 28 28 29 29 29 29 29 30 30 31 31 31 31 31 31 32 32 32 30 28 27 27 27 27 27 27 26 26 25 25 24 24 23 23 23 22 23 23 22
26 27 27 27 28 29 30 31 31 31 31 31 32 31 31 32 32 31 31 34 33 32 32 31 30 29 29 30 30 29 28 27 27 27 26 26 25 25 25 25 25 25 24
27 27 28 28 28 29 30 31 32 32 33 32 32 32 31 32 33 32 32 34 34 32 33 32 32 32 31 30 31 31 29 29 29 29 28 28 28 27 27 27 27 27 26
26 27 28 29 28 29 30 31 33 33 34 34 33 33 32 32 32 32 32 33 34 33 33 33 33 33 33 33 32 32 32 31 31 31 31 30 30 29 28 29 29 29 28
26 27 27 28 27 28 29 30 31 31 32 32 33 33 32 32 32 33 32 33 35 35 34 34 34 33 34 34 33 33 33 34 33 33 33 32 32 31 31 31 30 30 30
25 26 26 26 27 28 28 29 30 30 31 32 32 32 32 31 31 32 32 33 34 35 35 35 34 35 34 34 34 33 33 34 34 35 34 33 34 33 33 33 33 32 32
23 24 24 25 26 27 27 27 28 29 30 31 31 31 31 31 31 32 32 33 34 35 35 34 34 34 33 33 34 33 33 34 35 34 34 34 34 34 34 34 34 34 34
21 22 23 24 24 25 25 26 27 27 28 29 30 30 30 31 31 32 32 32 33 33 33 32 33 33 33 32 33 34 34 34 33 34 34 34 35 35 35 35 35 35 35
Wind_Direction
181 177 176 178 185 191 194 199 207 208 200 193 190 184 178 173 164 153 138 120 101 85 74 62 50 36 29 24 14 9 7 15 23 27 26 25 28 30 31 27 22 17 11
187 186 182 181 187 197 203 207 212 212 206 200 197 193 188 186 181 171 156 142 124 102 84 67 52 38 26 17 2 1 6 15 29 32 33 35 34 33 33 29 23 13 4
198 191 187 187 190 197 207 213 217 218 215 209 206 204 202 201 196 190 182 171 159 140 113 81 50 30 11 353 325 315 328 333 76 49 41 38 35 31 32 28 24 15 7
211 204 201 198 197 201 210 218 222 223 222 219 215 212 210 209 207 203 201 199 196 191 188 204 242 315 296 287 274 263 248 231 200 98 33 26 25 21 25 24 18 12 6
220 215 213 210 205 205 212 218 222 225 226 226 224 220 217 214 213 212 215 219 220 217 215 222 231 245 254 257 254 244 233 228 224 231 294 6 9 4 5 7 9 7 3
228 227 222 218 215 214 215 220 223 226 229 230 230 229 226 223 222 221 223 227 228 227 228 232 233 237 243 248 244 238 235 232 228 233 252 273 312 324 329 336 351 355 344
235 236 231 226 223 222 221 222 223 225 229 231 232 233 233 231 229 230 231 233 234 233 233 237 239 238 239 242 239 235 236 236 232 231 242 251 265 280 285 297 317 324 322
241 240 238 234 231 229 226 226 226 226 229 232 234 234 236 235 235 236 236 238 238 237 236 238 240 239 238 239 237 234 235 237 233 233 240 248 255 262 267 269 275 290 307
250 244 240 239 238 235 232 232 232 232 231 233 235 235 236 236 237 238 238 239 241 239 239 239 241 240 238 237 235 232 233 235 234 235 237 242 247 252 257 260 263 274 288
258 250 241 238 239 240 239 237 237 237 236 236 236 236 238 239 240 240 239 240 242 240 240 240 241 238 237 237 236 234 234 236 237 236 237 239 242 244 249 255 259 268 278
264 258 249 243 243 244 244 242 241 240 239 239 239 238 239 240 241 241 241 241 242 241 241 242 241 239 237 237 237 236 237 238 238 237 238 239 241 242 246 253 256 263 274
267 262 256 251 248 248 248 247 246 243 241 241 241 240 240 241 242 242 242 243 243 244 243 244 243 241 240 239 240 239 238 239 239 239 239 240 243 243 246 251 256 264 272
271 266 262 258 254 251 251 250 250 248 246 245 244 244 242 242 243 243 244 243 244 245 245 245 245 244 242 242 242 242 241 240 240 240 240 241 244 245 248 252 257 262 268
271 266 264 262 257 255 253 252 252 252 251 249 248 249 248 247 245 243 244 244 244 245 247 247 247 246 243 243 245 245 244 243 242 242 242 243 243 245 249 252 257 262 268
271 266 262 260 259 258 256 255 254 254 252 253 252 250 252 251 249 247 246 245 246 246 247 247 247 246 244 244 246 247 246 246 245 244 244 244 245 246 249 252 256 261 266
267 264 261 260 260 260 258 256 255 254 254 254 253 253 254 252 251 249 248 246 247 247 247 245 245 246 245 245 247 247 247 248 247 246 245 246 247 248 250 253 256 260 264
263 263 262 262 261 260 258 257 256 255 255 255 254 254 255 254 253 251 249 246 246 247 247 245 245 246 247 246 247 247 247 249 249 247 245 247 248 249 251 254 256 259 264
263 261 262 262 261 260 259 257 256 255 255 254 254 254 255 255 254 250 249 249 247 246 247 247 246 247 247 247 247 248 246 246 249 250 248 248 248 250 252 254 256 258 263
261 261 261 261 261 259 258 257 256 255 255 254 254 256 257 255 253 251 250 250 249 248 248 248 248 248 248 248 248 247 246 246 249 250 249 249 250 251 252 254 256 258 262
262 262 263 262 263 262 261 259 258 257 255 255 255 257 256 255 254 254 253 250 250 249 248 248 250 249 249 250 249 248 248 247 250 251 250 249 251 253 253 254 256 259 262
262 263 264 263 263 263 262 259 259 257 256 256 256 255 256 257 256 255 254 251 248 248 248 248 249 249 250 249 249 248 247 248 250 252 253 252 252 254 255 256 258 261 264
262 263 265 265 264 262 261 259 259 258 257 258 258 257 258 257 255 255 253 250 248 248 248 249 250 249 250 250 250 247 246 248 251 253 253 254 254 254 254 256 258 262 266
264 263 264 263 262 261 260 259 258 257 258 256 256 257 256 255 255 255 253 250 249 249 249 249 248 249 249 249 248 250 249 250 251 253 254 255 255 255 255 256 259 262 266
266 265 264 264 263 261 259 258 257 257 258 257 257 255 255 254 254 253 253 251 249 249 250 251 250 248 248 248 249 251 251 251 250 252 253 256 257 256 255 258 260 262 264
266 266 265 264 264 263 260 258 258 258 258 257 256 256 254 254 252 251 251 251 251 250 250 249 249 249 249 249 251 251 252 251 250 252 254 255 256 256 256 258 258 261 264
269 267 265 265 264 264 261 260 259 259 258 257 256 256 254 252 250 251 252 254 252 251 249 248 249 249 248 249 248 248 251 251 252 253 255 256 257 256 257 259 261 263 266
Height
5901 5902 5902 5902 5903 5903 5904 5905 5907 5907 5908 5908 5908 5908 5909 5909 5909 5910 5910 5911 5911 5911 5911 5911 5912 5912 5912 5912 5912 5911 5911 5911 5911 5911 5910 5910 5909 5909 5909 5908 5908 5907 5907
5900 5900 5901 5901 5902 5903 5904 5905 5906 5907 5907 5908 5908 5908 5908 5908 5909 5909 5910 5910 5910 5910 5911 5911 5911 5911 5911 5911 5911 5911 5911 5911 5911 5911 5910 5910 5910 5909 5909 5909 5908 5908 5907
5898 5899 5899 5900 5901 5902 5903 5904 5905 5906 5906 5907 5907 5907 5907 5908 5908 5908 5909 5909 5909 5910 5910 5910 5910 5910 5910 5910 5911 5911 5911 5911 5911 5911 5910 5910 5910 5909 5909 5909 5909 5908 5908
5896 5897 5898 5899 5900 5900 5901 5902 5903 5904 5905 5906 5906 5906 5906 5907 5907 5907 5908 5908 5909 5909 5909 5909 5909 5909 5910 5910 5910 5910 5910 5911 5911 5910 5910 5910 5910 5910 5909 5909 5909 5909 5908
5894 5895 5896 5897 5898 5899 5900 5901 5902 5903 5903 5904 5904 5905 5905 5905 5906 5906 5907 5907 5908 5908 5908 5908 5908 5908 5909 5909 5909 5909 5909 5910 5910 5910 5910 5910 5910 5910 5909 5909 5909 5909 5908
5892 5893 5894 5895 5896 5897 5898 5899 5900 5901 5901 5902 5903 5903 5904 5904 5905 5905 5906 5906 5907 5907 5907 5907 5907 5907 5908 5908 5908 5908 5909 5909 5909 5909 5909 5909 5909 5909 5909 5909 5909 5909 5908
5890 5891 5892 5893 5894 5895 5895 5896 5897 5898 5899 5900 5901 5901 5902 5903 5903 5904 5904 5905 5905 5905 5905 5906 5906 5906 5906 5907 5907 5907 5907 5908 5908 5908 5908 5909 5909 5909 5909 5909 5909 5908 5908
5888 5889 5889 5890 5891 5892 5893 5894 5895 5896 5897 5897 5898 5899 5900 5900 5901 5902 5902 5903 5903 5904 5904 5904 5904 5905 5905 5905 5905 5906 5906 5906 5907 5907 5907 5908 5908 5908 5909 5908 5908 5908 5908
5886 5886 5887 5887 5888 5889 5890 5891 5892 5893 5894 5895 5895 5896 5897 5898 5898 5899 5900 5900 5901 5902 5902 5902 5903 5903 5903 5903 5904 5904 5904 5905 5905 5905 5906 5907 5907 5908 5908 5908 5907 5907 5907
5883 5884 5884 5884 5885 5886 5887 5888 5889 5890 5891 5892 5892 5893 5894 5895 5895 5896 5897 5898 5898 5899 5900 5900 5900 5901 5901 5901 5902 5902 5903 5903 5904 5904 5905 5905 5906 5906 5906 5906 5906 5906 5906
5880 5880 5881 5882 5882 5883 5884 5885 5885 5886 5887 5888 5889 5889 5890 5891 5892 5893 5894 5895 5896 5896 5897 5898 5898 5899 5899 5899 5899 5900 5900 5901 5902 5902 5903 5903 5904 5904 5905 5905 5905 5905 5905
5877 5877 5878 5878 5879 5879 5880 5881 5882 5882 5883 5884 5885 5886 5886 5887 5888 5889 5890 5891 5892 5893 5894 5895 5895 5896 5896 5897 5897 5897 5898 5899 5899 5900 5901 5902 5902 5902 5903 5903 5903 5903 5903
5873 5873 5874 5874 5875 5876 5876 5877 5878 5878 5879 5880 5881 5881 5882 5883 5883 5884 5886 5887 5887 5889 5890 5891 5892 5893 5893 5894 5894 5895 5895 5896 5897 5897 5898 5899 5900 5900 5901 5901 5901 5901 5901
5869 5869 5870 5870 5870 5871 5872 5873 5874 5874 5875 5876 5876 5877 5878 5878 5879 5880 5881 5882 5883 5884 5885 5887 5888 5889 5890 5891 5891 5892 5893 5893 5894 5894 5895 5896 5897 5898 5898 5898 5899 5899 5899
5864 5865 5865 5866 5866 5867 5867 5868 5869 5870 5870 5871 5872 5873 5873 5874 5874 5875 5876 5878 5879 5879 5880 5882 5883 5885 5886 5887 5888 5889 5889 5890 5891 5892 5892 5893 5894 5895 5895 5895 5896 5896 5896
5859 5859 5860 5861 5861 5861 5862 5862 5863 5864 5865 5865 5867 5867 5868 5868 5869 5870 5871 5873 5874 5874 5875 5877 5879 5880 5881 5883 5884 5885 5886 5887 5887 5888 5889 5889 5890 5891 5892 5892 5892 5892 5892
5854 5854 5854 5855 5855 5856 5856 5857 5857 5858 5859 5860 5860 5861 5862 5862 5863 5864 5865 5867 5868 5869 5870 5872 5873 5875 5876 5878 5879 5880 5881 5882 5883 5884 5885 5885 5886 5887 5888 5888 5889 5889 5888
5848 5848 5848 5849 5849 5850 5850 5850 5851 5852 5853 5853 5854 5855 5855 5856 5857 5858 5859 5861 5862 5863 5865 5867 5868 5870 5871 5873 5874 5875 5877 5878 5879 5879 5880 5881 5882 5883 5883 5884 5884 5884 5884
5842 5842 5842 5842 5843 5843 5843 5844 5845 5845 5846 5847 5847 5848 5848 5849 5850 5851 5853 5854 5855 5857 5859 5861 5862 5864 5866 5867 5869 5870 5871 5872 5874 5874 5875 5876 5877 5878 5878 5879 5879 5879 5880
5835 5836 5836 5836 5836 5836 5836 5837 5837 5838 5839 5839 5840 5841 5841 5842 5843 5844 5845 5846 5849 5851 5853 5854 5856 5858 5859 5861 5862 5864 5865 5867 5868 5869 5870 5871 5872 5872 5873 5874 5874 5874 5874
5829 5829 5829 5829 5829 5829 5829 5829 5829 5830 5831 5832 5833 5833 5834 5835 5836 5837 5838 5839 5842 5844 5846 5847 5849 5850 5852 5854 5855 5857 5859 5861 5862 5864 5864 5865 5866 5867 5867 5868 5868 5869 5869
5822 5822 5822 5821 5821 5821 5821 5822 5822 5822 5823 5824 5825 5825 5826 5827 5828 5828 5830 5831 5834 5836 5838 5840 5842 5843 5845 5847 5848 5850 5852 5855 5856 5857 5858 5860 5861 5861 5861 5862 5862 5863 5863
5815 5815 5814 5814 5814 5813 5814 5814 5814 5815 5815 5816 5817 5818 5818 5819 5820 5821 5823 5824 5827 5829 5831 5832 5834 5836 5837 5839 5841 5843 5845 5847 5849 5850 5851 5853 5854 5855 5855 5856 5856 5856 5856
5808 5808 5808 5807 5807 5807 5807 5807 5807 5808 5808 5809 5809 5810 5811 5812 5813 5815 5816 5818 5819 5821 5823 5824 5826 5828 5830 5832 5834 5836 5838 5840 5841 5843 5844 5845 5847 5848 5848 5849 5849 5849 5849
5802 5801 5801 5800 5800 5800 5800 5800 5800 5800 5801 5801 5802 5802 5803 5804 5805 5807 5808 5810 5811 5813 5815 5816 5818 5820 5822 5824 5826 5828 5829 5831 5833 5835 5837 5838 5839 5840 5841 5841 5842 5842 5842
5796 5795 5795 5794 5794 5793 5793 5793 5793 5793 5793 5794 5794 5795 5795 5797 5798 5799 5801 5802 5804 5806 5807 5809 5811 5812 5814 5816 5818 5820 5822 5823 5826 5828 5829 5830 5831 5832 5833 5834 5834 5834 5834